Time,TemperatureF,DewpointF,PressureIn,WindDirection,WindDirectionDegrees,WindSpeedMPH,WindSpeedGustMPH,Humidity,HourlyPrecipIn,Conditions,Clouds,dailyrainin,SoftwareType,DateUTC
2013-03-07 00:00:00,36.6,34.5,29.96,East,82,0.0,0.0,92,0.00,,SKC,0.00,VWS V14.01,2013-03-07 08:00:00,
2013-03-07 00:01:00,36.9,34.8,29.97,East,82,0.0,0.0,92,0.00,,SKC,0.00,VWS V14.01,2013-03-07 08:01:00,
2013-03-07 00:06:00,36.9,34.8,29.97,East,82,0.0,2.0,92,0.00,,SKC,0.00,VWS V14.01,2013-03-07 08:06:00,
2013-03-07 00:11:00,36.9,34.8,29.97,East,82,0.0,2.0,92,0.00,,SKC,0.00,VWS V14.01,2013-03-07 08:11:00,
2013-03-07 00:16:00,36.5,34.4,29.96,East,82,0.0,2.0,92,0.00,,SKC,0.00,VWS V14.01,2013-03-07 08:16:00,
2013-03-07 00:21:00,36.3,34.2,29.96,East,82,0.0,2.0,92,0.00,,SKC,0.00,VWS V14.01,2013-03-07 08:21:00,
2013-03-07 00:26:00,36.3,34.2,29.96,East,82,0.0,2.0,92,0.00,,SKC,0.00,VWS V14.01,2013-03-07 08:26:00,
2013-03-07 00:30:00,35.9,33.8,29.95,East,82,0.0,0.0,92,0.00,,SKC,0.00,VWS V14.01,2013-03-07 08:30:00,
2013-03-07 00:31:00,36.5,34.4,29.96,East,82,0.0,0.0,92,0.00,,SKC,0.00,VWS V14.01,2013-03-07 08:31:00,
2013-03-07 00:36:00,36.6,34.5,29.96,East,82,0.0,0.0,92,0.00,,SKC,0.00,VWS V14.01,2013-03-07 08:36:00,
2013-03-07 00:42:00,36.5,34.4,29.96,East,82,0.0,0.0,92,0.00,,SKC,0.00,VWS V14.01,2013-03-07 08:42:00,
2013-03-07 00:47:00,36.3,34.2,29.96,East,82,0.0,0.0,92,0.00,,SKC,0.00,VWS V14.01,2013-03-07 08:47:00,
2013-03-07 00:52:00,36.5,34.4,29.96,East,82,0.0,0.0,92,0.00,,SKC,0.00,VWS V14.01,2013-03-07 08:52:00,
2013-03-07 00:57:00,36.6,34.5,29.96,East,82,0.0,0.0,92,0.00,,SKC,0.00,VWS V14.01,2013-03-07 08:57:00,
2013-03-07 01:00:00,35.2,33.1,29.95,East,82,0.0,0.0,92,0.00,,SKC,0.00,VWS V14.01,2013-03-07 09:00:00,
2013-03-07 01:02:00,36.6,34.5,29.96,East,82,0.0,0.0,92,0.00,,SKC,0.00,VWS V14.01,2013-03-07 09:02:00,
2013-03-07 01:07:00,36.6,34.5,29.96,East,82,0.0,0.0,92,0.00,,SKC,0.00,VWS V14.01,2013-03-07 09:07:00,
2013-03-07 01:13:00,36.8,34.7,29.96,East,82,0.0,0.0,92,0.00,,SKC,0.00,VWS V14.01,2013-03-07 09:13:00,
2013-03-07 01:18:00,36.5,34.4,29.95,East,82,0.0,0.0,92,0.00,,SKC,0.00,VWS V14.01,2013-03-07 09:18:00,
2013-03-07 01:23:00,36.2,34.1,29.95,East,82,0.0,0.0,92,0.00,,SKC,0.00,VWS V14.01,2013-03-07 09:23:00,
2013-03-07 01:28:00,35.9,33.8,29.95,East,82,0.0,0.0,92,0.00,,SKC,0.00,VWS V14.01,2013-03-07 09:28:00,
2013-03-07 01:30:00,34.3,32.2,29.95,East,82,0.0,0.0,92,0.00,,SKC,0.00,VWS V14.01,2013-03-07 09:30:00,
2013-03-07 01:33:00,35.6,33.5,29.95,East,82,0.0,0.0,92,0.00,,SKC,0.00,VWS V14.01,2013-03-07 09:33:00,
2013-03-07 01:38:00,35.5,33.4,29.95,East,82,0.0,0.0,92,0.00,,SKC,0.00,VWS V14.01,2013-03-07 09:38:00,
2013-03-07 01:43:00,35.5,33.4,29.95,East,82,0.0,0.0,92,0.00,,SKC,0.00,VWS V14.01,2013-03-07 09:43:00,
2013-03-07 01:49:00,35.5,33.4,29.95,East,82,0.0,0.0,92,0.00,,SKC,0.00,VWS V14.01,2013-03-07 09:49:00,
2013-03-07 01:54:00,35.5,33.4,29.95,East,82,0.0,0.0,92,0.00,,SKC,0.00,VWS V14.01,2013-03-07 09:54:00,
2013-03-07 01:59:00,35.2,33.1,29.95,East,82,0.0,0.0,92,0.00,,SKC,0.00,VWS V14.01,2013-03-07 09:59:00,
2013-03-07 02:00:00,33.7,31.6,29.93,East,82,0.0,0.0,92,0.00,,SKC,0.00,VWS V14.01,2013-03-07 10:00:00,
2013-03-07 02:04:00,34.9,32.8,29.95,East,82,0.0,0.0,92,0.00,,SKC,0.00,VWS V14.01,2013-03-07 10:04:00,
2013-03-07 02:09:00,34.7,32.6,29.95,East,82,0.0,0.0,92,0.00,,SKC,0.00,VWS V14.01,2013-03-07 10:09:00,
2013-03-07 02:14:00,34.6,32.5,29.95,East,82,0.0,0.0,92,0.00,,SKC,0.00,VWS V14.01,2013-03-07 10:14:00,
2013-03-07 02:19:00,34.6,32.5,29.95,East,82,0.0,0.0,92,0.00,,SKC,0.00,VWS V14.01,2013-03-07 10:19:00,
2013-03-07 02:25:00,34.6,32.5,29.95,East,82,0.0,0.0,92,0.00,,SKC,0.00,VWS V14.01,2013-03-07 10:25:00,
2013-03-07 02:30:00,34.3,32.2,29.95,East,82,0.0,0.0,92,0.00,,SKC,0.00,VWS V14.01,2013-03-07 10:30:00,
2013-03-07 02:35:00,33.8,31.5,29.95,East,82,0.0,0.0,91,0.00,,SKC,0.00,VWS V14.01,2013-03-07 10:35:00,
2013-03-07 02:40:00,33.7,31.4,29.95,East,82,0.0,0.0,91,0.00,,SKC,0.00,VWS V14.01,2013-03-07 10:40:00,
2013-03-07 02:45:00,33.5,31.4,29.93,East,82,0.0,0.0,92,0.00,,SKC,0.00,VWS V14.01,2013-03-07 10:45:00,
2013-03-07 02:50:00,33.5,31.4,29.93,East,82,0.0,0.0,92,0.00,,SKC,0.00,VWS V14.01,2013-03-07 10:50:00,
2013-03-07 02:55:00,33.7,31.6,29.93,East,82,0.0,0.0,92,0.00,,SKC,0.00,VWS V14.01,2013-03-07 10:55:00,
2013-03-07 03:00:00,33.5,31.4,29.92,East,82,0.0,0.0,92,0.00,,SKC,0.00,VWS V14.01,2013-03-07 11:00:00,
2013-03-07 03:01:00,33.7,31.6,29.93,East,82,0.0,0.0,92,0.00,,SKC,0.00,VWS V14.01,2013-03-07 11:01:00,
2013-03-07 03:06:00,33.7,31.6,29.93,East,82,0.0,0.0,92,0.00,,SKC,0.00,VWS V14.01,2013-03-07 11:06:00,
2013-03-07 03:12:00,33.7,31.6,29.93,East,82,0.0,0.0,92,0.00,,SKC,0.00,VWS V14.01,2013-03-07 11:12:00,
2013-03-07 03:17:00,33.4,31.3,29.93,East,82,0.0,0.0,92,0.00,,SKC,0.00,VWS V14.01,2013-03-07 11:17:00,
2013-03-07 03:23:00,33.1,31.0,29.93,East,82,0.0,0.0,92,0.00,,SKC,0.00,VWS V14.01,2013-03-07 11:23:00,
2013-03-07 03:28:00,32.9,30.8,29.93,East,82,0.0,0.0,92,0.00,,SKC,0.00,VWS V14.01,2013-03-07 11:28:00,
2013-03-07 03:30:00,33.8,31.7,29.92,East,82,0.0,0.0,92,0.00,,SKC,0.00,VWS V14.01,2013-03-07 11:30:00,
2013-03-07 03:33:00,33.1,31.0,29.93,East,82,0.0,0.0,92,0.00,,SKC,0.00,VWS V14.01,2013-03-07 11:33:00,
2013-03-07 03:38:00,33.1,31.0,29.93,East,82,0.0,0.0,92,0.00,,SKC,0.00,VWS V14.01,2013-03-07 11:38:00,
2013-03-07 03:43:00,33.1,31.0,29.93,East,82,0.0,0.0,92,0.00,,SKC,0.00,VWS V14.01,2013-03-07 11:43:00,
2013-03-07 03:48:00,33.2,31.1,29.93,East,82,0.0,0.0,92,0.00,,SKC,0.00,VWS V14.01,2013-03-07 11:48:00,
2013-03-07 03:53:00,33.4,31.3,29.93,East,82,0.0,0.0,92,0.00,,SKC,0.00,VWS V14.01,2013-03-07 11:53:00,
2013-03-07 03:59:00,33.4,31.3,29.93,East,82,0.0,0.0,92,0.00,,SKC,0.00,VWS V14.01,2013-03-07 11:59:00,
2013-03-07 04:00:00,33.7,31.6,29.92,East,82,0.0,0.0,92,0.00,,SKC,0.00,VWS V14.01,2013-03-07 12:00:00,
2013-03-07 04:04:00,33.5,31.4,29.92,East,82,0.0,0.0,92,0.00,,SKC,0.00,VWS V14.01,2013-03-07 12:04:00,
2013-03-07 04:09:00,33.5,31.4,29.92,East,82,0.0,0.0,92,0.00,,SKC,0.00,VWS V14.01,2013-03-07 12:09:00,
2013-03-07 04:14:00,33.7,31.6,29.92,East,82,0.0,0.0,92,0.00,,SKC,0.00,VWS V14.01,2013-03-07 12:14:00,
2013-03-07 04:19:00,33.7,31.6,29.92,East,82,0.0,0.0,92,0.00,,SKC,0.00,VWS V14.01,2013-03-07 12:19:00,
2013-03-07 04:25:00,33.8,31.7,29.92,East,82,0.0,0.0,92,0.00,,SKC,0.00,VWS V14.01,2013-03-07 12:25:00,
2013-03-07 04:30:00,33.8,31.7,29.92,East,82,0.0,0.0,92,0.00,,SKC,0.00,VWS V14.01,2013-03-07 12:30:00,
2013-03-07 04:35:00,33.8,31.7,29.92,East,82,0.0,0.0,92,0.00,,SKC,0.00,VWS V14.01,2013-03-07 12:35:00,
2013-03-07 04:40:00,34.0,31.9,29.92,East,82,0.0,0.0,92,0.00,,SKC,0.00,VWS V14.01,2013-03-07 12:40:00,
2013-03-07 04:45:00,34.0,31.9,29.93,East,82,0.0,0.0,92,0.00,,SKC,0.00,VWS V14.01,2013-03-07 12:45:00,
2013-03-07 04:50:00,34.0,31.9,29.93,East,82,0.0,0.0,92,0.00,,SKC,0.00,VWS V14.01,2013-03-07 12:50:00,
2013-03-07 04:55:00,33.8,31.7,29.93,East,82,0.0,0.0,92,0.00,,SKC,0.00,VWS V14.01,2013-03-07 12:55:00,
2013-03-07 05:00:00,33.7,31.6,29.92,East,82,0.0,0.0,92,0.00,,SKC,0.00,VWS V14.01,2013-03-07 13:00:00,
2013-03-07 05:05:00,33.7,31.6,29.92,East,82,0.0,0.0,92,0.00,,SKC,0.00,VWS V14.01,2013-03-07 13:05:00,
2013-03-07 05:10:00,33.5,31.4,29.92,East,82,0.0,0.0,92,0.00,,SKC,0.00,VWS V14.01,2013-03-07 13:10:00,
2013-03-07 05:16:00,33.5,31.4,29.93,East,82,0.0,0.0,92,0.00,,SKC,0.00,VWS V14.01,2013-03-07 13:16:00,
2013-03-07 05:21:00,33.4,31.3,29.93,East,82,0.0,0.0,92,0.00,,SKC,0.00,VWS V14.01,2013-03-07 13:21:00,
2013-03-07 05:26:00,33.4,31.3,29.93,East,82,0.0,0.0,92,0.00,,SKC,0.00,VWS V14.01,2013-03-07 13:26:00,
2013-03-07 05:30:00,33.1,31.0,29.94,East,82,0.0,0.0,92,0.00,,SKC,0.00,VWS V14.01,2013-03-07 13:30:00,
2013-03-07 05:32:00,33.2,31.1,29.92,East,82,0.0,0.0,92,0.00,,SKC,0.00,VWS V14.01,2013-03-07 13:32:00,
2013-03-07 05:37:00,33.1,31.0,29.92,East,82,0.0,0.0,92,0.00,,SKC,0.00,VWS V14.01,2013-03-07 13:37:00,
2013-03-07 05:43:00,33.1,31.0,29.92,East,82,0.0,0.0,92,0.00,,SKC,0.00,VWS V14.01,2013-03-07 13:43:00,
2013-03-07 05:48:00,33.1,31.0,29.92,East,82,0.0,0.0,92,0.00,,SKC,0.00,VWS V14.01,2013-03-07 13:48:00,
2013-03-07 05:53:00,33.2,31.1,29.92,East,82,0.0,0.0,92,0.00,,SKC,0.00,VWS V14.01,2013-03-07 13:53:00,
2013-03-07 05:58:00,33.1,31.0,29.92,East,82,0.0,0.0,92,0.00,,SKC,0.00,VWS V14.01,2013-03-07 13:58:00,
2013-03-07 06:00:00,32.9,30.8,29.94,East,82,0.0,0.0,92,0.00,,SKC,0.00,VWS V14.01,2013-03-07 14:00:00,
2013-03-07 06:03:00,33.1,31.0,29.92,East,82,0.0,0.0,92,0.00,,SKC,0.00,VWS V14.01,2013-03-07 14:03:00,
2013-03-07 06:08:00,32.9,30.8,29.92,East,82,0.0,0.0,92,0.00,,SKC,0.00,VWS V14.01,2013-03-07 14:08:00,
2013-03-07 06:13:00,32.9,30.8,29.92,East,82,0.0,0.0,92,0.00,,SKC,0.00,VWS V14.01,2013-03-07 14:13:00,
2013-03-07 06:18:00,33.1,31.0,29.94,East,82,0.0,0.0,92,0.00,,SKC,0.00,VWS V14.01,2013-03-07 14:18:00,
2013-03-07 06:23:00,32.9,30.8,29.94,East,82,0.0,0.0,92,0.00,,SKC,0.00,VWS V14.01,2013-03-07 14:23:00,
2013-03-07 06:29:00,32.9,30.8,29.94,East,82,0.0,0.0,92,0.00,,SKC,0.00,VWS V14.01,2013-03-07 14:29:00,
2013-03-07 06:30:00,34.4,32.3,29.94,East,82,0.0,0.0,92,0.00,,SKC,0.00,VWS V14.01,2013-03-07 14:30:00,
2013-03-07 06:34:00,33.1,31.0,29.94,East,82,0.0,0.0,92,0.00,,SKC,0.00,VWS V14.01,2013-03-07 14:34:00,
2013-03-07 06:39:00,33.1,31.0,29.94,East,82,0.0,0.0,92,0.00,,SKC,0.00,VWS V14.01,2013-03-07 14:39:00,
2013-03-07 06:44:00,32.8,30.7,29.94,East,82,0.0,0.0,92,0.00,,SKC,0.00,VWS V14.01,2013-03-07 14:44:00,
2013-03-07 06:49:00,32.5,30.4,29.94,East,82,0.0,0.0,92,0.00,,SKC,0.00,VWS V14.01,2013-03-07 14:49:00,
2013-03-07 06:54:00,32.7,30.6,29.94,East,82,0.0,0.0,92,0.00,,SKC,0.00,VWS V14.01,2013-03-07 14:54:00,
2013-03-07 06:59:00,32.9,30.8,29.94,East,82,0.0,0.0,92,0.00,,SKC,0.00,VWS V14.01,2013-03-07 14:59:00,
2013-03-07 07:00:00,35.0,32.9,29.94,East,82,0.0,0.0,92,0.00,,SKC,0.00,VWS V14.01,2013-03-07 15:00:00,
2013-03-07 07:04:00,33.2,31.1,29.94,East,82,0.0,0.0,92,0.00,,SKC,0.00,VWS V14.01,2013-03-07 15:04:00,
2013-03-07 07:10:00,33.5,31.4,29.94,East,82,0.0,0.0,92,0.00,,SKC,0.00,VWS V14.01,2013-03-07 15:10:00,
2013-03-07 07:15:00,33.8,31.7,29.94,East,82,0.0,0.0,92,0.00,,SKC,0.00,VWS V14.01,2013-03-07 15:15:00,
2013-03-07 07:20:00,34.0,31.9,29.94,East,82,0.0,0.0,92,0.00,,SKC,0.00,VWS V14.01,2013-03-07 15:20:00,
2013-03-07 07:25:00,34.1,32.0,29.94,East,82,0.0,0.0,92,0.00,,SKC,0.00,VWS V14.01,2013-03-07 15:25:00,
2013-03-07 07:30:00,34.4,32.3,29.94,East,82,0.0,0.0,92,0.00,,SKC,0.00,VWS V14.01,2013-03-07 15:30:00,
2013-03-07 07:35:00,34.6,32.5,29.94,East,82,0.0,0.0,92,0.00,,SKC,0.00,VWS V14.01,2013-03-07 15:35:00,
2013-03-07 07:40:00,34.7,32.6,29.94,East,82,0.0,0.0,92,0.00,,SKC,0.00,VWS V14.01,2013-03-07 15:40:00,
2013-03-07 07:45:00,34.7,32.6,29.94,East,82,0.0,0.0,92,0.00,,SKC,0.00,VWS V14.01,2013-03-07 15:45:00,
2013-03-07 07:51:00,34.7,32.6,29.94,East,82,0.0,0.0,92,0.00,,SKC,0.00,VWS V14.01,2013-03-07 15:51:00,
2013-03-07 07:56:00,34.9,32.8,29.94,East,82,0.0,0.0,92,0.00,,SKC,0.00,VWS V14.01,2013-03-07 15:56:00,
2013-03-07 08:00:00,41.5,39.6,29.91,East,82,0.0,0.0,93,0.00,,SKC,0.00,VWS V14.01,2013-03-07 16:00:00,
2013-03-07 08:01:00,35.2,33.1,29.94,East,82,0.0,0.0,92,0.00,,SKC,0.00,VWS V14.01,2013-03-07 16:01:00,
2013-03-07 08:06:00,35.5,33.4,29.94,East,82,0.0,0.0,92,0.00,,SKC,0.00,VWS V14.01,2013-03-07 16:06:00,
2013-03-07 08:11:00,36.0,33.9,29.94,East,82,0.0,0.0,92,0.00,,SKC,0.00,VWS V14.01,2013-03-07 16:11:00,
2013-03-07 08:16:00,36.5,34.7,29.93,East,82,0.0,0.0,93,0.00,,SKC,0.00,VWS V14.01,2013-03-07 16:16:00,
2013-03-07 08:22:00,36.9,35.1,29.93,East,82,0.0,0.0,93,0.00,,SKC,0.00,VWS V14.01,2013-03-07 16:22:00,
2013-03-07 08:27:00,37.2,35.4,29.93,East,82,0.0,0.0,93,0.00,,SKC,0.00,VWS V14.01,2013-03-07 16:27:00,
2013-03-07 08:30:00,44.5,37.8,29.90,East,82,0.0,1.0,77,0.00,,SKC,0.00,VWS V14.01,2013-03-07 16:30:00,
2013-03-07 08:32:00,38.0,36.2,29.93,East,82,0.0,0.0,93,0.00,,SKC,0.00,VWS V14.01,2013-03-07 16:32:00,
2013-03-07 08:37:00,38.3,36.5,29.93,East,82,0.0,0.0,93,0.00,,SKC,0.00,VWS V14.01,2013-03-07 16:37:00,
2013-03-07 08:42:00,39.1,37.2,29.93,East,82,0.0,0.0,93,0.00,,SKC,0.00,VWS V14.01,2013-03-07 16:42:00,
2013-03-07 08:47:00,39.9,38.0,29.92,East,82,0.0,0.0,93,0.00,,SKC,0.00,VWS V14.01,2013-03-07 16:47:00,
2013-03-07 08:53:00,41.2,39.3,29.92,East,82,0.0,0.0,93,0.00,,SKC,0.00,VWS V14.01,2013-03-07 16:53:00,
2013-03-07 08:58:00,41.5,39.6,29.92,East,82,0.0,0.0,93,0.00,,SKC,0.00,VWS V14.01,2013-03-07 16:58:00,
2013-03-07 09:00:00,47.6,36.0,29.89,SE,128,0.0,3.0,64,0.00,,SKC,0.00,VWS V14.01,2013-03-07 17:00:00,
2013-03-07 09:03:00,41.6,39.7,29.91,East,82,0.0,0.0,93,0.00,,SKC,0.00,VWS V14.01,2013-03-07 17:03:00,
2013-03-07 09:08:00,42.5,40.6,29.91,East,82,0.0,1.0,93,0.00,,SKC,0.00,VWS V14.01,2013-03-07 17:08:00,
2013-03-07 09:13:00,43.1,41.2,29.91,East,82,0.0,1.0,93,0.00,,SKC,0.00,VWS V14.01,2013-03-07 17:13:00,
2013-03-07 09:18:00,43.9,41.7,29.91,East,82,0.0,1.0,92,0.00,,SKC,0.00,VWS V14.01,2013-03-07 17:18:00,
2013-03-07 09:23:00,44.2,39.4,29.91,East,82,0.0,1.0,83,0.00,,SKC,0.00,VWS V14.01,2013-03-07 17:23:00,
2013-03-07 09:28:00,44.3,38.5,29.91,East,82,0.0,1.0,80,0.00,,SKC,0.00,VWS V14.01,2013-03-07 17:28:00,
2013-03-07 09:30:00,47.9,33.8,29.89,SW,221,0.0,4.0,58,0.00,,SKC,0.00,VWS V14.01,2013-03-07 17:30:00,
2013-03-07 09:33:00,45.1,37.3,29.90,East,82,0.0,0.0,74,0.00,,SKC,0.00,VWS V14.01,2013-03-07 17:33:00,
2013-03-07 09:39:00,45.5,37.0,29.90,East,82,0.0,1.0,72,0.00,,SKC,0.00,VWS V14.01,2013-03-07 17:39:00,
2013-03-07 09:44:00,46.4,37.5,29.90,East,82,0.0,1.0,71,0.00,,SKC,0.00,VWS V14.01,2013-03-07 17:44:00,
2013-03-07 09:49:00,46.7,36.3,29.90,ESE,107,0.0,2.0,67,0.00,,SKC,0.00,VWS V14.01,2013-03-07 17:49:00,
2013-03-07 09:54:00,47.1,36.7,29.90,ESE,107,0.0,2.0,67,0.00,,SKC,0.00,VWS V14.01,2013-03-07 17:54:00,
2013-03-07 09:59:00,47.4,35.8,29.89,SE,128,0.0,3.0,64,0.00,,SKC,0.00,VWS V14.01,2013-03-07 17:59:00,
2013-03-07 10:00:00,48.2,34.1,29.89,West,267,0.0,5.0,58,0.00,,SKC,0.00,VWS V14.01,2013-03-07 18:00:00,
2013-03-07 10:04:00,47.7,34.5,29.89,SE,128,1.0,3.0,60,0.00,,SKC,0.00,VWS V14.01,2013-03-07 18:04:00,
2013-03-07 10:09:00,48.2,34.6,29.89,SE,128,0.0,3.0,59,0.00,,SKC,0.00,VWS V14.01,2013-03-07 18:09:00,
2013-03-07 10:14:00,48.5,35.3,29.88,SE,128,0.0,3.0,60,0.00,,SKC,0.00,VWS V14.01,2013-03-07 18:14:00,
2013-03-07 10:19:00,48.0,34.4,29.88,SW,223,0.0,4.0,59,0.00,,SKC,0.00,VWS V14.01,2013-03-07 18:19:00,
2013-03-07 10:26:00,47.9,34.3,29.88,SW,221,0.0,4.0,59,0.00,,SKC,0.00,VWS V14.01,2013-03-07 18:26:00,
2013-03-07 10:30:00,48.6,33.2,29.89,South,183,1.0,6.0,55,0.00,,SKC,0.00,VWS V14.01,2013-03-07 18:30:00,
2013-03-07 10:31:00,48.0,33.5,29.89,SSE,152,2.0,5.0,57,0.00,,SKC,0.00,VWS V14.01,2013-03-07 18:31:00,
2013-03-07 10:36:00,48.2,34.1,29.89,SSE,166,0.0,5.0,58,0.00,,SKC,0.00,VWS V14.01,2013-03-07 18:36:00,
2013-03-07 10:41:00,48.0,33.5,29.89,SSW,207,1.0,5.0,57,0.00,,SKC,0.00,VWS V14.01,2013-03-07 18:41:00,
2013-03-07 10:46:00,47.7,32.8,29.89,SSW,211,0.0,5.0,56,0.00,,SKC,0.00,VWS V14.01,2013-03-07 18:46:00,
2013-03-07 10:51:00,47.6,34.0,29.89,SSW,211,0.0,5.0,59,0.00,,SKC,0.00,VWS V14.01,2013-03-07 18:51:00,
2013-03-07 10:56:00,47.9,31.1,29.89,SSW,204,0.0,5.0,52,0.00,,SKC,0.00,VWS V14.01,2013-03-07 18:56:00,
2013-03-07 11:00:00,48.5,34.8,29.88,NNW,329,0.0,4.0,59,0.00,,SKC,0.00,VWS V14.01,2013-03-07 19:00:00,
2013-03-07 11:01:00,48.0,33.5,29.89,SW,236,0.0,6.0,57,0.00,,SKC,0.00,VWS V14.01,2013-03-07 19:01:00,
2013-03-07 11:06:00,48.3,32.4,29.89,SW,229,3.0,6.0,54,0.00,,SKC,0.00,VWS V14.01,2013-03-07 19:06:00,
2013-03-07 11:12:00,48.3,32.9,29.89,SW,222,0.0,6.0,55,0.00,,SKC,0.00,VWS V14.01,2013-03-07 19:12:00,
2013-03-07 11:17:00,48.2,30.9,29.89,SW,217,0.0,6.0,51,0.00,,SKC,0.00,VWS V14.01,2013-03-07 19:17:00,
2013-03-07 11:22:00,48.2,31.4,29.89,SW,217,0.0,6.0,52,0.00,,SKC,0.00,VWS V14.01,2013-03-07 19:22:00,
2013-03-07 11:27:00,48.5,32.2,29.89,South,183,2.0,6.0,53,0.00,,SKC,0.00,VWS V14.01,2013-03-07 19:27:00,
2013-03-07 11:30:00,47.9,34.7,29.88,West,271,0.0,7.0,60,0.00,,SKC,0.00,VWS V14.01,2013-03-07 19:30:00,
2013-03-07 11:33:00,48.6,32.3,29.89,South,183,0.0,2.0,53,0.00,,SKC,0.00,VWS V14.01,2013-03-07 19:33:00,
2013-03-07 11:38:00,48.9,33.5,29.89,SW,220,3.0,3.0,55,0.00,,SKC,0.00,VWS V14.01,2013-03-07 19:38:00,
2013-03-07 11:43:00,49.1,32.7,29.89,West,265,0.0,3.0,53,0.00,,SKC,0.00,VWS V14.01,2013-03-07 19:43:00,
2013-03-07 11:49:00,48.8,33.4,29.88,WNW,302,0.0,3.0,55,0.00,,SKC,0.00,VWS V14.01,2013-03-07 19:49:00,
2013-03-07 11:54:00,48.6,34.5,29.88,NW,313,0.0,3.0,58,0.00,,SKC,0.00,VWS V14.01,2013-03-07 19:54:00,
2013-03-07 11:59:00,48.5,34.8,29.88,NNW,329,1.0,4.0,59,0.00,,SKC,0.00,VWS V14.01,2013-03-07 19:59:00,
2013-03-07 12:00:00,49.4,35.7,29.86,North,350,1.0,4.0,59,0.00,,SKC,0.00,VWS V14.01,2013-03-07 20:00:00,
2013-03-07 12:04:00,48.3,34.7,29.88,NW,325,0.0,4.0,59,0.00,,SKC,0.00,VWS V14.01,2013-03-07 20:04:00,
2013-03-07 12:09:00,48.2,35.0,29.88,West,279,0.0,7.0,60,0.00,,SKC,0.00,VWS V14.01,2013-03-07 20:09:00,
2013-03-07 12:15:00,48.3,36.7,29.88,West,271,0.0,7.0,64,0.00,,SKC,0.00,VWS V14.01,2013-03-07 20:15:00,
2013-03-07 12:20:00,48.0,34.4,29.88,WNW,299,0.0,7.0,59,0.00,,SKC,0.00,VWS V14.01,2013-03-07 20:20:00,
2013-03-07 12:25:00,47.9,33.8,29.88,NW,307,1.0,7.0,58,0.00,,SKC,0.00,VWS V14.01,2013-03-07 20:25:00,
2013-03-07 12:30:00,47.9,34.7,29.88,West,271,0.0,0.0,60,0.00,,SKC,0.00,VWS V14.01,2013-03-07 20:30:00,
2013-03-07 12:35:00,48.3,35.9,29.88,WNW,284,1.0,3.0,62,0.00,,SKC,0.00,VWS V14.01,2013-03-07 20:35:00,
2013-03-07 12:40:00,48.5,35.3,29.88,WNW,293,0.0,4.0,60,0.00,,SKC,0.00,VWS V14.01,2013-03-07 20:40:00,
2013-03-07 12:46:00,48.6,34.9,29.88,WNW,283,0.0,4.0,59,0.00,,SKC,0.00,VWS V14.01,2013-03-07 20:46:00,
2013-03-07 12:51:00,48.8,34.7,29.88,NW,307,2.0,4.0,58,0.00,,SKC,0.00,VWS V14.01,2013-03-07 20:51:00,
2013-03-07 12:56:00,49.2,35.1,29.88,SW,226,1.0,4.0,58,0.00,,SKC,0.00,VWS V14.01,2013-03-07 20:56:00,
2013-03-07 13:00:00,48.3,35.1,29.85,NNW,327,0.0,6.0,60,0.00,,SKC,0.00,VWS V14.01,2013-03-07 21:00:00,
2013-03-07 13:01:00,49.2,34.6,29.86,WNW,302,2.0,5.0,57,0.00,,SKC,0.00,VWS V14.01,2013-03-07 21:01:00,
2013-03-07 13:06:00,48.6,34.9,29.86,West,269,0.0,5.0,59,0.00,,SKC,0.00,VWS V14.01,2013-03-07 21:06:00,
2013-03-07 13:12:00,48.5,34.8,29.86,WNW,294,0.0,5.0,59,0.00,,SKC,0.00,VWS V14.01,2013-03-07 21:12:00,
2013-03-07 13:17:00,48.6,35.8,29.86,WNW,288,1.0,5.0,61,0.00,,SKC,0.00,VWS V14.01,2013-03-07 21:17:00,
2013-03-07 13:22:00,48.5,35.3,29.86,WNW,294,0.0,5.0,60,0.00,,SKC,0.00,VWS V14.01,2013-03-07 21:22:00,
2013-03-07 13:27:00,48.0,35.2,29.86,WNW,294,0.0,5.0,61,0.00,,SKC,0.00,VWS V14.01,2013-03-07 21:27:00,
2013-03-07 13:30:00,47.4,36.6,29.86,West,281,0.0,3.0,66,0.00,,SKC,0.00,VWS V14.01,2013-03-07 21:30:00,
2013-03-07 13:32:00,48.2,35.0,29.87,WNW,294,0.0,0.0,60,0.00,,SKC,0.00,VWS V14.01,2013-03-07 21:32:00,
2013-03-07 13:37:00,48.3,35.1,29.87,WNW,294,0.0,0.0,60,0.00,,SKC,0.00,VWS V14.01,2013-03-07 21:37:00,
2013-03-07 13:42:00,48.9,36.1,29.87,WNW,294,0.0,2.0,61,0.00,,SKC,0.00,VWS V14.01,2013-03-07 21:42:00,
2013-03-07 13:47:00,49.1,35.4,29.85,WNW,299,4.0,6.0,59,0.00,,SKC,0.00,VWS V14.01,2013-03-07 21:47:00,
2013-03-07 13:53:00,48.8,35.5,29.85,NW,305,0.0,6.0,60,0.00,,SKC,0.00,VWS V14.01,2013-03-07 21:53:00,
2013-03-07 13:58:00,48.5,35.7,29.85,NW,305,0.0,6.0,61,0.00,,SKC,0.00,VWS V14.01,2013-03-07 21:58:00,
2013-03-07 14:00:00,48.0,33.5,29.86,WNW,296,0.0,5.0,57,0.00,,SKC,0.00,VWS V14.01,2013-03-07 22:00:00,
2013-03-07 14:03:00,48.2,34.6,29.85,WNW,295,0.0,3.0,59,0.00,,SKC,0.00,VWS V14.01,2013-03-07 22:03:00,
2013-03-07 14:08:00,47.7,34.9,29.85,West,281,0.0,3.0,61,0.00,,SKC,0.00,VWS V14.01,2013-03-07 22:08:00,
2013-03-07 14:13:00,47.7,34.5,29.85,West,281,0.0,3.0,60,0.00,,SKC,0.00,VWS V14.01,2013-03-07 22:13:00,
2013-03-07 14:18:00,47.7,35.7,29.86,West,281,0.0,3.0,63,0.00,,SKC,0.00,VWS V14.01,2013-03-07 22:18:00,
2013-03-07 14:23:00,47.7,36.5,29.86,West,281,0.0,3.0,65,0.00,,SKC,0.00,VWS V14.01,2013-03-07 22:23:00,
2013-03-07 14:29:00,47.4,36.2,29.86,West,281,0.0,3.0,65,0.00,,SKC,0.00,VWS V14.01,2013-03-07 22:29:00,
2013-03-07 14:30:00,47.3,34.1,29.86,NW,312,0.0,3.0,60,0.00,,SKC,0.00,VWS V14.01,2013-03-07 22:30:00,
2013-03-07 14:34:00,47.4,37.0,29.86,WSW,247,0.0,2.0,67,0.00,,SKC,0.00,VWS V14.01,2013-03-07 22:34:00,
2013-03-07 14:39:00,47.6,34.8,29.86,WSW,247,0.0,2.0,61,0.00,,SKC,0.00,VWS V14.01,2013-03-07 22:39:00,
2013-03-07 14:44:00,48.0,34.8,29.86,WNW,302,0.0,3.0,60,0.00,,SKC,0.00,VWS V14.01,2013-03-07 22:44:00,
2013-03-07 14:49:00,48.2,35.0,29.86,WNW,290,0.0,4.0,60,0.00,,SKC,0.00,VWS V14.01,2013-03-07 22:49:00,
2013-03-07 14:54:00,48.3,36.7,29.86,WNW,290,0.0,4.0,64,0.00,,SKC,0.00,VWS V14.01,2013-03-07 22:54:00,
2013-03-07 14:59:00,48.0,33.5,29.86,WNW,296,0.0,5.0,57,0.00,,SKC,0.00,VWS V14.01,2013-03-07 22:59:00,
2013-03-07 15:00:00,46.7,36.0,29.86,NW,312,0.0,2.0,66,0.00,,SKC,0.00,VWS V14.01,2013-03-07 23:00:00,
2013-03-07 15:04:00,47.7,33.7,29.86,WNW,296,0.0,2.0,58,0.00,,SKC,0.00,VWS V14.01,2013-03-07 23:04:00,
2013-03-07 15:09:00,47.6,34.0,29.86,NW,313,0.0,3.0,59,0.00,,SKC,0.00,VWS V14.01,2013-03-07 23:09:00,
2013-03-07 15:15:00,47.6,34.8,29.86,NW,313,0.0,3.0,61,0.00,,SKC,0.00,VWS V14.01,2013-03-07 23:15:00,
2013-03-07 15:20:00,47.6,34.0,29.86,NW,313,0.0,3.0,59,0.00,,SKC,0.00,VWS V14.01,2013-03-07 23:20:00,
2013-03-07 15:25:00,47.4,33.4,29.86,NW,312,0.0,3.0,58,0.00,,SKC,0.00,VWS V14.01,2013-03-07 23:25:00,
2013-03-07 15:30:00,47.3,34.1,29.86,NW,312,0.0,0.0,60,0.00,,SKC,0.00,VWS V14.01,2013-03-07 23:30:00,
2013-03-07 15:35:00,47.3,33.7,29.86,NW,312,0.0,2.0,59,0.00,,SKC,0.00,VWS V14.01,2013-03-07 23:35:00,
2013-03-07 15:40:00,47.1,33.9,29.86,NW,312,0.0,2.0,60,0.00,,SKC,0.00,VWS V14.01,2013-03-07 23:40:00,
2013-03-07 15:45:00,47.1,33.9,29.86,NW,312,0.0,2.0,60,0.00,,SKC,0.00,VWS V14.01,2013-03-07 23:45:00,
2013-03-07 15:50:00,47.0,33.4,29.86,NW,312,0.0,2.0,59,0.00,,SKC,0.00,VWS V14.01,2013-03-07 23:50:00,
2013-03-07 15:55:00,46.8,34.9,29.86,NW,312,0.0,2.0,63,0.00,,SKC,0.00,VWS V14.01,2013-03-07 23:55:00,
2013-03-07 16:00:00,46.7,36.0,29.86,NW,312,0.0,0.0,66,0.00,,SKC,0.00,VWS V14.01,2013-03-08 00:00:00,
2013-03-07 16:05:00,46.2,37.0,29.86,NW,312,0.0,1.0,70,0.00,,SKC,0.00,VWS V14.01,2013-03-08 00:05:00,
2013-03-07 16:11:00,46.0,36.4,29.86,NW,312,0.0,1.0,69,0.00,,SKC,0.00,VWS V14.01,2013-03-08 00:11:00,
2013-03-07 16:16:00,45.7,36.8,29.86,SE,129,0.0,3.0,71,0.00,,SKC,0.00,VWS V14.01,2013-03-08 00:16:00,
2013-03-07 16:21:00,45.4,36.9,29.86,East,101,3.0,4.0,72,0.00,,SKC,0.00,VWS V14.01,2013-03-08 00:21:00,
2013-03-07 16:26:00,44.9,36.8,29.86,SSE,150,0.0,7.0,73,0.00,,SKC,0.00,VWS V14.01,2013-03-08 00:26:00,
2013-03-07 16:30:00,43.3,37.9,29.88,East,90,0.0,2.0,81,0.00,,SKC,0.00,VWS V14.01,2013-03-08 00:30:00,
2013-03-07 16:31:00,44.6,37.2,29.87,ESE,122,0.0,4.0,75,0.00,,SKC,0.00,VWS V14.01,2013-03-08 00:31:00,
2013-03-07 16:36:00,44.5,37.4,29.87,ESE,122,0.0,4.0,76,0.00,,SKC,0.00,VWS V14.01,2013-03-08 00:36:00,
2013-03-07 16:42:00,44.3,37.2,29.87,East,90,2.0,4.0,76,0.00,,SKC,0.00,VWS V14.01,2013-03-08 00:42:00,
2013-03-07 16:47:00,44.2,37.5,29.87,East,90,0.0,4.0,77,0.00,,SKC,0.00,VWS V14.01,2013-03-08 00:47:00,
2013-03-07 16:52:00,44.1,37.7,29.87,East,90,0.0,4.0,78,0.00,,SKC,0.00,VWS V14.01,2013-03-08 00:52:00,
2013-03-07 16:57:00,44.1,38.0,29.87,East,90,0.0,4.0,79,0.00,,SKC,0.00,VWS V14.01,2013-03-08 00:57:00,
2013-03-07 17:00:00,42.8,38.0,29.88,East,90,0.0,1.0,83,0.01,,SKC,0.01,VWS V14.01,2013-03-08 01:00:00,
2013-03-07 17:02:00,43.9,38.1,29.88,East,90,0.0,0.0,80,0.00,,SKC,0.00,VWS V14.01,2013-03-08 01:02:00,
2013-03-07 17:07:00,43.9,38.1,29.88,East,90,0.0,0.0,80,0.00,,SKC,0.00,VWS V14.01,2013-03-08 01:07:00,
2013-03-07 17:12:00,43.8,38.0,29.88,East,90,0.0,0.0,80,0.00,,SKC,0.00,VWS V14.01,2013-03-08 01:12:00,
2013-03-07 17:17:00,43.6,37.8,29.88,East,90,0.0,0.0,80,0.00,,SKC,0.00,VWS V14.01,2013-03-08 01:17:00,
2013-03-07 17:23:00,43.5,37.8,29.88,East,90,0.0,2.0,80,0.00,,SKC,0.00,VWS V14.01,2013-03-08 01:23:00,
2013-03-07 17:28:00,43.3,37.9,29.88,East,90,0.0,2.0,81,0.00,,SKC,0.00,VWS V14.01,2013-03-08 01:28:00,
2013-03-07 17:30:00,42.2,38.0,29.88,East,90,0.0,0.0,85,0.01,,SKC,0.01,VWS V14.01,2013-03-08 01:30:00,
2013-03-07 17:33:00,43.3,38.2,29.88,East,90,0.0,0.0,82,0.00,,SKC,0.00,VWS V14.01,2013-03-08 01:33:00,
2013-03-07 17:39:00,43.2,38.1,29.88,East,90,0.0,0.0,82,0.00,,SKC,0.00,VWS V14.01,2013-03-08 01:39:00,
2013-03-07 17:44:00,43.1,38.3,29.88,East,90,0.0,0.0,83,0.00,,SKC,0.00,VWS V14.01,2013-03-08 01:44:00,
2013-03-07 17:49:00,42.9,38.1,29.88,East,90,0.0,1.0,83,0.00,,SKC,0.00,VWS V14.01,2013-03-08 01:49:00,
2013-03-07 17:55:00,42.9,37.8,29.88,East,90,0.0,1.0,82,0.00,,SKC,0.00,VWS V14.01,2013-03-08 01:55:00,
2013-03-07 18:00:00,42.8,38.0,29.88,East,90,0.0,1.0,83,0.01,,SKC,0.01,VWS V14.01,2013-03-08 02:00:00,
2013-03-07 18:05:00,42.6,38.1,29.88,East,90,0.0,0.0,84,0.01,,SKC,0.01,VWS V14.01,2013-03-08 02:05:00,
2013-03-07 18:10:00,42.6,38.1,29.88,East,90,0.0,0.0,84,0.01,,SKC,0.01,VWS V14.01,2013-03-08 02:10:00,
2013-03-07 18:15:00,42.5,38.3,29.87,East,90,0.0,0.0,85,0.01,,SKC,0.01,VWS V14.01,2013-03-08 02:15:00,
2013-03-07 18:20:00,42.3,38.1,29.87,East,90,0.0,0.0,85,0.01,,SKC,0.01,VWS V14.01,2013-03-08 02:20:00,
2013-03-07 18:25:00,42.2,38.0,29.87,East,90,0.0,0.0,85,0.01,,SKC,0.01,VWS V14.01,2013-03-08 02:25:00,
2013-03-07 18:30:00,42.2,38.0,29.88,East,90,0.0,0.0,85,0.01,,SKC,0.01,VWS V14.01,2013-03-08 02:30:00,
2013-03-07 18:35:00,42.1,38.2,29.88,East,90,0.0,0.0,86,0.01,,SKC,0.01,VWS V14.01,2013-03-08 02:35:00,
2013-03-07 18:40:00,41.9,38.0,29.88,East,90,0.0,0.0,86,0.01,,SKC,0.01,VWS V14.01,2013-03-08 02:40:00,
2013-03-07 18:46:00,41.9,38.3,29.88,East,90,0.0,0.0,87,0.01,,SKC,0.01,VWS V14.01,2013-03-08 02:46:00,
2013-03-07 18:51:00,41.8,38.2,29.88,East,90,0.0,0.0,87,0.01,,SKC,0.01,VWS V14.01,2013-03-08 02:51:00,
2013-03-07 18:56:00,41.6,38.0,29.88,East,90,0.0,0.0,87,0.01,,SKC,0.01,VWS V14.01,2013-03-08 02:56:00,
2013-03-07 19:00:00,40.5,37.2,29.87,East,90,0.0,0.0,88,0.00,,SKC,0.01,VWS V14.01,2013-03-08 03:00:00,
2013-03-07 19:01:00,41.5,37.9,29.88,East,90,0.0,0.0,87,0.00,,SKC,0.01,VWS V14.01,2013-03-08 03:01:00,
2013-03-07 19:06:00,41.3,37.7,29.88,East,90,0.0,0.0,87,0.00,,SKC,0.01,VWS V14.01,2013-03-08 03:06:00,
2013-03-07 19:11:00,41.5,37.9,29.88,East,90,0.0,0.0,87,0.00,,SKC,0.01,VWS V14.01,2013-03-08 03:11:00,
2013-03-07 19:17:00,41.5,38.2,29.87,East,90,0.0,0.0,88,0.00,,SKC,0.01,VWS V14.01,2013-03-08 03:17:00,
2013-03-07 19:22:00,41.5,38.2,29.87,East,90,0.0,0.0,88,0.00,,SKC,0.01,VWS V14.01,2013-03-08 03:22:00,
2013-03-07 19:27:00,41.3,38.0,29.87,East,90,0.0,0.0,88,0.00,,SKC,0.01,VWS V14.01,2013-03-08 03:27:00,
2013-03-07 19:30:00,39.8,36.8,29.85,East,90,0.0,0.0,89,0.00,,SKC,0.01,VWS V14.01,2013-03-08 03:30:00,
2013-03-07 19:32:00,41.2,37.9,29.88,East,90,0.0,0.0,88,0.00,,SKC,0.01,VWS V14.01,2013-03-08 03:32:00,
2013-03-07 19:37:00,41.1,37.8,29.88,East,90,0.0,0.0,88,0.00,,SKC,0.01,VWS V14.01,2013-03-08 03:37:00,
2013-03-07 19:42:00,41.1,37.8,29.88,East,90,0.0,0.0,88,0.00,,SKC,0.01,VWS V14.01,2013-03-08 03:42:00,
2013-03-07 19:47:00,40.9,37.6,29.88,East,90,0.0,0.0,88,0.00,,SKC,0.01,VWS V14.01,2013-03-08 03:47:00,
2013-03-07 19:52:00,40.8,37.5,29.88,East,90,0.0,0.0,88,0.00,,SKC,0.01,VWS V14.01,2013-03-08 03:52:00,
2013-03-07 19:57:00,40.5,37.2,29.88,East,90,0.0,0.0,88,0.00,,SKC,0.01,VWS V14.01,2013-03-08 03:57:00,
2013-03-07 20:00:00,39.6,36.6,29.85,ENE,74,0.0,2.0,89,0.00,,SKC,0.01,VWS V14.01,2013-03-08 04:00:00,
2013-03-07 20:03:00,40.3,37.0,29.87,East,90,0.0,0.0,88,0.00,,SKC,0.01,VWS V14.01,2013-03-08 04:03:00,
2013-03-07 20:08:00,40.2,36.9,29.87,East,90,0.0,0.0,88,0.00,,SKC,0.01,VWS V14.01,2013-03-08 04:08:00,
2013-03-07 20:13:00,40.2,37.2,29.87,East,90,0.0,0.0,89,0.00,,SKC,0.01,VWS V14.01,2013-03-08 04:13:00,
2013-03-07 20:18:00,40.1,37.1,29.86,East,90,0.0,0.0,89,0.00,,SKC,0.01,VWS V14.01,2013-03-08 04:18:00,
2013-03-07 20:23:00,39.9,36.9,29.86,East,90,0.0,0.0,89,0.00,,SKC,0.01,VWS V14.01,2013-03-08 04:23:00,
2013-03-07 20:28:00,39.8,36.8,29.86,East,90,0.0,0.0,89,0.00,,SKC,0.01,VWS V14.01,2013-03-08 04:28:00,
2013-03-07 20:30:00,39.3,36.6,29.84,ENE,74,0.0,1.0,90,0.00,,SKC,0.01,VWS V14.01,2013-03-08 04:30:00,
2013-03-07 20:33:00,39.8,36.8,29.85,East,90,0.0,0.0,89,0.00,,SKC,0.01,VWS V14.01,2013-03-08 04:33:00,
2013-03-07 20:39:00,39.8,36.8,29.85,ENE,74,0.0,2.0,89,0.00,,SKC,0.01,VWS V14.01,2013-03-08 04:39:00,
2013-03-07 20:44:00,39.6,36.6,29.85,ENE,74,0.0,2.0,89,0.00,,SKC,0.01,VWS V14.01,2013-03-08 04:44:00,
2013-03-07 20:49:00,39.6,36.6,29.85,ENE,74,0.0,2.0,89,0.00,,SKC,0.01,VWS V14.01,2013-03-08 04:49:00,
2013-03-07 20:54:00,39.6,36.6,29.85,ENE,74,0.0,2.0,89,0.00,,SKC,0.01,VWS V14.01,2013-03-08 04:54:00,
2013-03-07 20:59:00,39.6,36.6,29.85,ENE,74,0.0,2.0,89,0.00,,SKC,0.01,VWS V14.01,2013-03-08 04:59:00,
2013-03-07 21:00:00,39.6,36.6,29.85,ENE,74,0.0,0.0,89,0.00,,SKC,0.01,VWS V14.01,2013-03-08 05:00:00,
2013-03-07 21:03:00,39.6,36.6,29.85,ENE,74,0.0,0.0,89,0.00,,SKC,0.01,VWS V14.01,2013-03-08 05:03:00,
2013-03-07 21:04:00,39.5,36.5,29.85,ENE,74,0.0,0.0,89,0.00,,SKC,0.01,VWS V14.01,2013-03-08 05:04:00,
2013-03-07 21:09:00,39.5,36.5,29.85,ENE,74,0.0,0.0,89,0.00,,SKC,0.01,VWS V14.01,2013-03-08 05:09:00,
2013-03-07 21:14:00,39.3,36.3,29.84,ENE,74,0.0,1.0,89,0.00,,SKC,0.01,VWS V14.01,2013-03-08 05:14:00,
2013-03-07 21:19:00,39.3,36.6,29.84,ENE,74,0.0,1.0,90,0.00,,SKC,0.01,VWS V14.01,2013-03-08 05:19:00,
2013-03-07 21:24:00,39.3,36.6,29.84,ENE,74,0.0,1.0,90,0.00,,SKC,0.01,VWS V14.01,2013-03-08 05:24:00,
2013-03-07 21:30:00,39.3,36.6,29.84,ENE,74,0.0,1.0,90,0.00,,SKC,0.01,VWS V14.01,2013-03-08 05:30:00,
2013-03-07 21:35:00,39.3,36.3,29.84,ENE,74,0.0,0.0,89,0.00,,SKC,0.01,VWS V14.01,2013-03-08 05:35:00,
2013-03-07 21:40:00,39.3,36.3,29.84,ENE,74,0.0,1.0,89,0.00,,SKC,0.01,VWS V14.01,2013-03-08 05:40:00,
2013-03-07 21:45:00,39.2,36.2,29.84,ENE,74,0.0,1.0,89,0.00,,SKC,0.01,VWS V14.01,2013-03-08 05:45:00,
2013-03-07 21:50:00,39.1,36.1,29.84,ENE,74,0.0,1.0,89,0.00,,SKC,0.01,VWS V14.01,2013-03-08 05:50:00,
2013-03-07 21:55:00,39.1,36.1,29.84,ENE,74,0.0,1.0,89,0.00,,SKC,0.01,VWS V14.01,2013-03-08 05:55:00,
2013-03-07 22:00:00,39.2,36.2,29.84,ENE,74,0.0,0.0,89,0.00,,SKC,0.01,VWS V14.01,2013-03-08 06:00:00,
2013-03-07 22:05:00,39.1,36.1,29.84,ENE,74,0.0,1.0,89,0.00,,SKC,0.01,VWS V14.01,2013-03-08 06:05:00,
2013-03-07 22:10:00,38.8,35.6,29.84,ENE,74,0.0,1.0,88,0.00,,SKC,0.01,VWS V14.01,2013-03-08 06:10:00,
2013-03-07 22:16:00,38.5,35.3,29.84,ENE,74,0.0,1.0,88,0.00,,SKC,0.01,VWS V14.01,2013-03-08 06:16:00,
2013-03-07 22:21:00,38.3,35.1,29.84,ENE,74,0.0,1.0,88,0.00,,SKC,0.01,VWS V14.01,2013-03-08 06:21:00,
2013-03-07 22:26:00,38.5,35.5,29.84,ENE,74,0.0,1.0,89,0.00,,SKC,0.01,VWS V14.01,2013-03-08 06:26:00,
2013-03-07 22:30:00,36.0,33.1,29.83,ENE,74,0.0,0.0,89,0.00,,SKC,0.01,VWS V14.01,2013-03-08 06:30:00,
2013-03-07 22:31:00,38.5,35.3,29.83,ENE,74,0.0,0.0,88,0.00,,SKC,0.01,VWS V14.01,2013-03-08 06:31:00,
2013-03-07 22:36:00,38.0,34.8,29.83,ENE,74,0.0,1.0,88,0.00,,SKC,0.01,VWS V14.01,2013-03-08 06:36:00,
2013-03-07 22:41:00,37.9,35.0,29.83,ENE,74,0.0,1.0,89,0.00,,SKC,0.01,VWS V14.01,2013-03-08 06:41:00,
2013-03-07 22:46:00,37.8,34.9,29.83,ENE,74,0.0,1.0,89,0.00,,SKC,0.01,VWS V14.01,2013-03-08 06:46:00,
2013-03-07 22:51:00,37.3,34.1,29.83,ENE,74,0.0,1.0,88,0.00,,SKC,0.01,VWS V14.01,2013-03-08 06:51:00,
2013-03-07 22:56:00,37.0,34.1,29.83,ENE,74,0.0,1.0,89,0.00,,SKC,0.01,VWS V14.01,2013-03-08 06:56:00,
2013-03-07 23:00:00,35.6,33.0,29.82,ENE,74,0.0,0.0,90,0.00,,SKC,0.01,VWS V14.01,2013-03-08 07:00:00,
2013-03-07 23:01:00,36.9,34.0,29.83,ENE,74,0.0,0.0,89,0.00,,SKC,0.01,VWS V14.01,2013-03-08 07:01:00,
2013-03-07 23:07:00,36.8,33.9,29.83,ENE,74,0.0,0.0,89,0.00,,SKC,0.01,VWS V14.01,2013-03-08 07:07:00,
2013-03-07 23:12:00,36.8,33.9,29.83,ENE,74,0.0,0.0,89,0.00,,SKC,0.01,VWS V14.01,2013-03-08 07:12:00,
2013-03-07 23:17:00,36.5,33.6,29.82,ENE,74,0.0,0.0,89,0.00,,SKC,0.01,VWS V14.01,2013-03-08 07:17:00,
2013-03-07 23:22:00,36.3,33.4,29.82,ENE,74,0.0,0.0,89,0.00,,SKC,0.01,VWS V14.01,2013-03-08 07:22:00,
2013-03-07 23:27:00,36.0,33.1,29.82,ENE,74,0.0,0.0,89,0.00,,SKC,0.01,VWS V14.01,2013-03-08 07:27:00,
2013-03-07 23:30:00,35.2,32.6,29.82,ENE,74,0.0,0.0,90,0.00,,SKC,0.00,VWS V14.01,2013-03-08 07:30:00,
2013-03-07 23:32:00,35.9,33.3,29.83,ENE,74,0.0,0.0,90,0.00,,SKC,0.01,VWS V14.01,2013-03-08 07:32:00,
2013-03-07 23:37:00,35.8,33.2,29.83,ENE,74,0.0,0.0,90,0.00,,SKC,0.01,VWS V14.01,2013-03-08 07:37:00,
2013-03-07 23:42:00,35.6,33.0,29.83,ENE,74,0.0,0.0,90,0.00,,SKC,0.01,VWS V14.01,2013-03-08 07:42:00,
2013-03-07 23:47:00,35.9,33.3,29.82,ENE,74,0.0,0.0,90,0.00,,SKC,0.01,VWS V14.01,2013-03-08 07:47:00,
2013-03-07 23:52:00,35.9,33.3,29.82,ENE,74,0.0,0.0,90,0.00,,SKC,0.01,VWS V14.01,2013-03-08 07:52:00,
2013-03-07 23:57:00,35.8,33.2,29.82,ENE,74,0.0,0.0,90,0.00,,SKC,0.01,VWS V14.01,2013-03-08 07:57:00,